星链-37890(STARLINK-37890)

导读

STARLINK-37890(NORAD编号69533)是美国太空探索技术公司(SpaceX)研发的Starlink v1.5版低轨通信卫星,属于星链互联网星座组成部分。其运行轨道近地点约570公里、远地点约574公里,轨道倾角69.998°,运行周期96.1分钟,可提供全球广域网络覆盖。截至2026年3月该卫星仍处于正常工作状态,截至2026年6月,星链星座已在全球164个国家和地区服务超1030万用户。

基本信息
目录编号:
69533
目录名称:
STARLINK-37890
国际标识:
2026-133AB
轨道中心:
EARTH
卫星名称:
星链-37890
卫星全名:
星链-37890(STARLINK-37890)
卫星状态:
在轨 (已飞行15 天)
发射日期:
2026-06-12 UTC
国别 :
美国 (US)
星等 :
--
轨道信息
数据来源 国际轨道数据
星历时间: 2026-06-27T20:00:02+0800
9小时前
查看轨道信息
半长轴: 6701.16km
偏心率: 0.0001339
轨道倾角: 53.157°
近地点辐角 66.090°
升交点赤经 269.690°
平近点角 78.573°
近地点: 322.125km
远地点: 323.921km
周期: 90.988分钟
每日圈数: 15.826244
详细信息
固有亮度:
5
最大亮度:
2.5
卫星平台:
Starlink V1.0
覆盖范围:
全球
运营商:
太空探索技术公司
运营商所在国:
美国
制造商(研发单位):
太空探索技术公司
制造商所在国:
美国
使用方式:
暂无
卫星简介
Starlink 计划是 SpaceX 推出的全球卫星互联网项目,通过发射低轨道卫星,为全球尤其是偏远地区提供高速、低延迟的互联网服务。自 2019 年起,Starlink 已部署数千颗卫星,旨在缩小全球数字鸿沟,推动互联网普及。该项目还为军事、航空等行业提供通信支持,带来广泛经济效益。
2D轨道图
3D轨道图
轨道高度分析图
轨道倾角分析图
轨道综合分析图
查看轨道综合分析图